Williamsburg, VA

1:35 PM EDT on August 19, 2017 (GMT -0400)
Williamsburg-jamestown

Weather History for KJGG - December, 2012

Change the Weather History Date:

Friday, December 7, 2012

  Actual Average Record
Temperature  
Mean Temperature 46 °F -  
Max Temperature 60 °F 56 °F 79 °F (1951)
Min Temperature 33 °F 32 °F 17 °F (1958)
Degree Days  
Heating Degree Days 18    
Moisture  
Dew Point 44 °F    
Average Humidity 85    
Maximum Humidity 100    
Minimum Humidity 63    
Precipitation  
Precipitation 0.03 in - - ()
Sea Level Pressure  
Sea Level Pressure 30.13 in    
Wind  
Wind Speed 1 mph (SSE)    
Max Wind Speed 6 mph    
Max Gust Speed -    
Visibility 10 miles    
Events      
Averages and records for this station are not official NWS values.
T = Trace of Precipitation, MM = Missing Value Source: NWS Daily Summary

Daily Weather History Graph

Daily Weather History Graph

Search for Another Location

Airport or City:

Trip Planner

Search our weather history database for the weather conditions in past years. The results will help you decide how hot, cold, wet, or windy it might be!

Date:

Astronomy

Dec. 07, 2012 Rise Set
Actual Time 7:07 AM EST 4:49 PM EST
Civil Twilight 6:38 AM EST 5:18 PM EST
Nautical Twilight 6:06 AM EST 5:50 PM EST
Astronomical Twilight 5:34 AM EST 6:22 PM EST
Moon 12:32 AM EST (12/7) 12:38 PM EST (12/7)
Length of Visible Light 10h 39m
Length of Day
9h 41m
Last Quarter, 39% of the Moon is Illuminated
Dec 7
Last Quarter
Dec 13
New
Dec 20
First Quarter
Dec 28
Full
Jan 4
Last Quarter

Hourly Weather History & Observations

Time (EST) Temp. Windchill Dew Point Humidity Pressure Visibility Wind Dir Wind Speed Gust Speed Precip Events Conditions
12:15 AM 33.8 °F - 32.0 °F 93% 30.26 in 10.0 mi Calm Calm - N/A   Clear
12:35 AM 35.6 °F - 32.0 °F 87% 30.25 in 10.0 mi Calm Calm - N/A   Clear
12:55 AM 35.6 °F - 32.0 °F 87% 30.26 in 10.0 mi Calm Calm - N/A   Clear
1:15 AM 33.8 °F - 32.0 °F 93% 30.25 in 10.0 mi Calm Calm - N/A   Clear
1:35 AM 35.6 °F - 33.8 °F 93% 30.25 in 10.0 mi Calm Calm - N/A   Clear
1:55 AM 35.6 °F - 33.8 °F 93% 30.24 in 10.0 mi Calm Calm - N/A   Clear
2:15 AM 35.6 °F - 33.8 °F 93% 30.24 in 10.0 mi Calm Calm - N/A   Clear
2:35 AM 35.6 °F - 33.8 °F 93% 30.24 in 10.0 mi Calm Calm - N/A   Clear
2:55 AM 35.6 °F - 33.8 °F 93% 30.24 in 10.0 mi Calm Calm - N/A   Scattered Clouds
3:15 AM 35.6 °F - 33.8 °F 93% 30.23 in 10.0 mi Calm Calm - N/A   Scattered Clouds
3:35 AM 37.4 °F - 35.6 °F 93% 30.23 in 10.0 mi Calm Calm - N/A   Clear
3:55 AM 35.6 °F - 33.8 °F 93% 30.23 in 10.0 mi Calm Calm - N/A   Clear
4:15 AM 37.4 °F 34.9 °F 35.6 °F 93% 30.21 in 10.0 mi ESE 3.5 mph - N/A   Mostly Cloudy
4:35 AM 37.4 °F - 35.6 °F 93% 30.21 in 10.0 mi Calm Calm - N/A   Overcast
4:55 AM 39.2 °F - 37.4 °F 93% 30.21 in 10.0 mi Calm Calm - N/A   Overcast
5:15 AM 39.2 °F - 37.4 °F 93% 30.21 in 10.0 mi Calm Calm - N/A   Overcast
5:35 AM 39.2 °F - 37.4 °F 93% 30.20 in 10.0 mi Calm Calm - N/A   Overcast
5:55 AM 41.0 °F - 39.2 °F 93% 30.21 in 10.0 mi Calm Calm - N/A   Overcast
6:15 AM 42.8 °F - 39.2 °F 87% 30.21 in 10.0 mi Calm Calm - N/A   Overcast
6:35 AM 42.8 °F 41.1 °F 39.2 °F 87% 30.21 in 10.0 mi SE 3.5 mph - N/A   Overcast
6:55 AM 42.8 °F - 39.2 °F 87% 30.21 in 10.0 mi Calm Calm - N/A   Overcast
7:15 AM 42.8 °F - 41.0 °F 93% 30.21 in 10.0 mi Calm Calm - N/A   Overcast
7:35 AM 44.6 °F - 41.0 °F 87% 30.21 in 10.0 mi Calm Calm - N/A   Overcast
7:55 AM 44.6 °F - 41.0 °F 87% 30.20 in 10.0 mi Calm Calm - N/A   Overcast
8:15 AM 44.6 °F - 41.0 °F 87% 30.20 in 10.0 mi Calm Calm - N/A   Overcast
8:35 AM 44.6 °F - 42.8 °F 93% 30.20 in 10.0 mi Calm Calm - N/A   Overcast
8:55 AM 46.4 °F - 42.8 °F 87% 30.20 in 10.0 mi Calm Calm - N/A   Overcast
9:15 AM 50.0 °F - 44.6 °F 82% 30.20 in 10.0 mi SSE 3.5 mph - N/A   Mostly Cloudy
9:35 AM 51.8 °F - 44.6 °F 76% 30.18 in 10.0 mi SE 5.8 mph - N/A   Scattered Clouds
9:55 AM 51.8 °F - 44.6 °F 76% 30.19 in 10.0 mi Calm Calm - N/A   Clear
10:15 AM 51.8 °F - 44.6 °F 76% 30.20 in 10.0 mi Calm Calm - N/A   Scattered Clouds
10:35 AM 51.8 °F - 44.6 °F 76% 30.19 in 10.0 mi South 3.5 mph - N/A   Mostly Cloudy
10:55 AM 53.6 °F - 44.6 °F 72% 30.18 in 10.0 mi South 3.5 mph - N/A   Overcast
11:15 AM 55.4 °F - 46.4 °F 72% 30.16 in 10.0 mi SSE 5.8 mph - N/A   Scattered Clouds
11:35 AM 55.4 °F - 46.4 °F 72% 30.16 in 10.0 mi Calm Calm - N/A   Scattered Clouds
11:55 AM 55.4 °F - 46.4 °F 72% 30.15 in 10.0 mi SE 4.6 mph - N/A   Mostly Cloudy
12:15 PM 55.4 °F - 46.4 °F 72% 30.14 in 10.0 mi SE 4.6 mph - N/A   Overcast
12:35 PM 55.4 °F - 46.4 °F 72% 30.13 in 10.0 mi Calm Calm - N/A   Overcast
12:55 PM 57.2 °F - 48.2 °F 72% 30.11 in 10.0 mi Calm Calm - N/A   Overcast
1:15 PM 55.4 °F - 46.4 °F 72% 30.11 in 10.0 mi Calm Calm - N/A   Overcast
1:35 PM 57.2 °F - 46.4 °F 67% 30.09 in 10.0 mi Calm Calm - N/A   Mostly Cloudy
1:55 PM 60.8 °F - 48.2 °F 63% 30.08 in 10.0 mi Calm Calm - N/A   Scattered Clouds
2:15 PM 59.0 °F - 48.2 °F 67% 30.08 in 10.0 mi Calm Calm - N/A   Clear
2:35 PM 59.0 °F - 48.2 °F 67% 30.08 in 10.0 mi Calm Calm - N/A   Scattered Clouds
2:55 PM 59.0 °F - 48.2 °F 67% 30.07 in 10.0 mi Calm Calm - N/A   Mostly Cloudy
3:15 PM 59.0 °F - 48.2 °F 67% 30.07 in 10.0 mi Calm Calm - N/A   Mostly Cloudy
3:35 PM 59.0 °F - 48.2 °F 67% 30.07 in 10.0 mi Calm Calm - N/A   Overcast
3:55 PM 57.2 °F - 48.2 °F 72% 30.07 in 10.0 mi SE 3.5 mph - N/A   Overcast
4:15 PM 57.2 °F - 50.0 °F 77% 30.06 in 10.0 mi Calm Calm - N/A   Overcast
4:35 PM 57.2 °F - 48.2 °F 72% 30.07 in 10.0 mi ESE 3.5 mph - N/A   Overcast
4:55 PM 55.4 °F - 50.0 °F 82% 30.07 in 10.0 mi Calm Calm - N/A   Overcast
5:15 PM 55.4 °F - 50.0 °F 82% 30.07 in 7.0 mi Calm Calm - N/A   Overcast
5:35 PM 53.6 °F - 51.8 °F 94% 30.07 in 10.0 mi Calm Calm - N/A   Overcast
5:55 PM 53.6 °F - 51.8 °F 94% 30.06 in 7.0 mi Calm Calm - N/A   Overcast
6:15 PM 53.6 °F - 51.8 °F 94% 30.06 in 10.0 mi Calm Calm - 0.01 in   Mostly Cloudy
6:35 PM 53.6 °F - 51.8 °F 94% 30.05 in 10.0 mi Calm Calm - 0.01 in   Overcast
6:55 PM 51.8 °F - 50.0 °F 94% 30.05 in 10.0 mi East 3.5 mph - 0.01 in   Mostly Cloudy
7:15 PM 51.8 °F - 50.0 °F 94% 30.04 in 10.0 mi Calm Calm - N/A   Overcast
7:35 PM 51.8 °F - 50.0 °F 94% 30.03 in 10.0 mi SE 4.6 mph - N/A   Mostly Cloudy
8:15 PM 53.6 °F - 51.8 °F 94% 30.03 in 10.0 mi SE 3.5 mph - N/A   Scattered Clouds
8:35 PM 51.8 °F - 50.0 °F 94% 30.03 in 10.0 mi SSE 3.5 mph - N/A   Mostly Cloudy
8:55 PM 51.8 °F - 50.0 °F 94% 30.02 in 10.0 mi SSE 4.6 mph - N/A   Mostly Cloudy
9:15 PM 53.6 °F - 51.8 °F 94% 30.02 in 10.0 mi South 4.6 mph - N/A   Overcast
9:35 PM 53.6 °F - 51.8 °F 94% 30.02 in 10.0 mi Calm Calm - N/A   Overcast
9:55 PM 55.4 °F - 51.8 °F 88% 30.01 in 10.0 mi SSE 3.5 mph - N/A   Overcast
10:15 PM 55.4 °F - 51.8 °F 88% 30.02 in 10.0 mi West 3.5 mph - N/A   Overcast
10:35 PM 55.4 °F - 51.8 °F 88% 30.01 in 10.0 mi Calm Calm - N/A   Overcast
10:55 PM 55.4 °F - 51.8 °F 88% 30.01 in 10.0 mi Calm Calm - 0.01 in   Overcast
11:15 PM 53.6 °F - 51.8 °F 94% 30.01 in 5.0 mi Calm Calm - N/A   Overcast
11:35 PM 53.6 °F - 51.8 °F 94% 30.00 in 7.0 mi Calm Calm - N/A   Overcast
11:55 PM 53.6 °F - 53.6 °F 100% 29.99 in 7.0 mi Calm Calm - 0.01 in   Overcast